Regional Weather Roundup
Issued by NWS

Home | Current Version | Previous Version | Graphics & Text | Print | Product List | Glossary Off
Versions: 1 2 3 4 5 6 7 8 9 10 11 12 13 14 15 16 17 18 19 20 21 22 23 24 25 26 27 28 29 30 31 32 33 34 35 36 37 38 39 40 41 42 43 44 45 46 47 48 49 50

000
ASUS43 KMKX 011911
RWRWI

WISCONSIN REGIONAL WEATHER ROUNDUP
NATIONAL WEATHER SERVICE MILWAUKEE/SULLIVAN WI
100 PM CST WED MAR 01 2017

NOTE: "FAIR" INDICATES FEW OR NO CLOUDS BELOW 12,000 FEET WITH NO
SIGNIFICANT WEATHER AND/OR OBSTRUCTIONS TO VISIBILITY.

WIZ001-002-006>008-014>016-023>028-012000-
NORTHWEST WISCONSIN

CITY           SKY/WX    TMP DP  RH WIND       PRES   REMARKS
SUPERIOR ARPT  MOSUNNY   27  17  67 CALM      29.92S
ASHLAND        CLOUDY    21  15  78 N13       29.90R WCI   9
HAYWARD        CLOUDY    24  17  74 N7        29.85S WCI  16
SIREN          PTSUNNY   28  19  66 N12       29.89R WCI  18
CUMBERLAND     CLOUDY    27  19  74 N15       29.86R WCI  15
RICE LAKE      CLOUDY    26  20  76 NW12      29.87R WCI  16
CHETEK         CLOUDY    26  20  77 N9        29.85R WCI  17
LADYSMITH      CLOUDY    25  19  77 N16G22    29.83R WCI  12
EAU CLAIRE     NOT AVBL
MENOMONIE      CLOUDY    29  21  71 NW17      29.85S WCI  17
NEW RICHMOND   MOSUNNY   31  20  64 N12       29.88S WCI  21
OSCEOLA        PTSUNNY   32  22  67 NW13      29.92R WCI  22
$$

WIZ003>005-009-010-017-018-012000-
NORTH CENTRAL WISCONSIN

CITY           SKY/WX    TMP DP  RH WIND       PRES   REMARKS
MANITOWISH WTR CLOUDY    19  16  86 N13G24    29.75R WCI   7
ARBOR VITAE    CLOUDY    22  17  83 N20         N/A  WCI   7
WOODRUFF       CLOUDY    22  17  83 N20         N/A  WCI   7
RHINELANDER    CLOUDY    22  17  81 NW10G21   29.71R WCI  11
EAGLE RIVER    FLURRIES  20  15  79 N13G23    29.71R WCI   8
LAND O LAKES   LGT SNOW  20  17  86 N14G21    29.73R WCI   7
PHILLIPS       CLOUDY    22  18  84 N12       29.76R WCI  10
TOMAHAWK       CLOUDY    22  17  81 NW12G21   29.73R WCI  11
MEDFORD        CLOUDY    24  18  77 N18       29.73R WCI  11
MERRILL        NOT AVBL
$$

WIZ029-030-035-036-043>047-012000-
CENTRAL WISCONSIN

CITY           SKY/WX    TMP DP  RH WIND       PRES   REMARKS
WAUSAU         SNOW      24  21  88 NW14G22   29.70R VSB 1/2 WCI  12
MOSINEE        SNOW      25  23  93 NW18G26   29.71R VSB 1/2 WCI  11
MARSHFIELD     SNOW      25  21  85 NW20G28   29.72R VSB 1/2 WCI  11
STEVENS POINT  MIX PCPN  23  22  95 NW15G22   29.69R VSB 1/2 WCI  10
WAUPACA        LGT SNOW  29  24  82 NW12      29.67R VSB 3/4 WCI  19
WAUTOMA        LGT SNOW  27  25  93 NW10G24   29.69R VSB 3/4 WCI  17
WISC RAPIDS    SNOW      26  24  92 N15       29.72R VSB 1/2 WCI  14
CAMP DOUGLAS   NOT AVBL
$$

WIZ011>013-019>022-031-037>040-048>050-012000-
NORTHEAST WISCONSIN

CITY           SKY/WX    TMP DP  RH WIND       PRES   REMARKS
ANTIGO         LGT SNOW  22  19  86 N22       29.66R WCI   6
SHAWANO        MIX PCPN  30  26  85 N8        29.65R VSB 1   WCI  22
OCONTO         CLOUDY    25  22  88 N13       29.61R VSB 1   WCI  14
STURGEON BAY   SNOW      24  22  91 N21G30    29.59R VSB 1/2 WCI   9
GREEN BAY      SNOW      27  25  92 NW10      29.63R VSB 1/2 WCI  17
MANITOWOC      HVY SNOW  27  25  93 N17       29.60R VSB 1/4 WCI  14
APPLETON       LGT SNOW  27  27 100 N15G23    29.61R VSB 3/4 WCI  15
CLINTONVILLE   LGT SNOW  28  25  86 NW13G18   29.64S VSB 3/4 WCI  18
OSHKOSH        SNOW      28  25  88 NW16      29.62S VSB 1/2 WCI  16
$$

WIZ032>034-041-042-053>061-012000-
SOUTHWEST WISCONSIN

CITY           SKY/WX    TMP DP  RH WIND       PRES   REMARKS
LA CROSSE      LGT SNOW  32  27  81 NW18      29.82R WCI  20
SPARTA         LGT SNOW  28  26  91 NW12G22   29.78R WCI  18
VIROQUA        CLOUDY    29  27  90 NW22      29.74R WCI  16
BOSCOBEL       LGT SNOW  32  29  88 NW8       29.78R VSB 3/4 WCI  25
PRAIRIE DU CHI LGT SNOW  31  31  99 NW15G25   29.80R WCI  20
PLATTEVILLE    CLOUDY    32  32  99 NW20G29   29.73R WCI  20
$$

WIZ056-057-062-063-064-067-068-012000-
SOUTH CENTRAL WISCONSIN

CITY           SKY/WX    TMP DP  RH WIND       PRES   REMARKS
REEDSBURG      LGT SNOW  28  27  96 NW12      29.70R WCI  18
BARABOO/DELLS  LGT SNOW  28  26  90 NW10      29.68R WCI  19
LONE ROCK      SNOW      31  27  85 NW13G23   29.73R VSB 1/2 WCI  21
MINERAL POINT  LGT SNOW  32  32 100 NW20G26   29.70R WCI  20
MADISON        LGT SNOW  30  26  85 NW13      29.66R VSB 1   WCI  20
MIDDLETON      CLOUDY    33  32  98 NW14      29.67R WCI  23
WATERTOWN      LGT SNOW  31  30  96 NW12G20   29.62R WCI  22
MONROE         LGT SNOW  32  32 100 NW15G23   29.65R WCI  22
JANESVILLE     LGT SNOW  36  36 100 NW16      29.64R WCI  26
$$

WIZ051-052-058>065-066-070>072-012000-
SOUTHEAST WISCONSIN

CITY           SKY/WX    TMP DP  RH WIND       PRES   REMARKS
MILWAUKEE      LGT SNOW  33  27  78 NW12G24   29.60R WCI  24
WAUKESHA       LGT SNOW  30  28  93 NW12      29.61R WCI  21
MILWAUKEE/TIMM LGT SNOW  30  27  86 NW8       29.61R WCI  23
RACINE         FLURRIES  35  29  78 NW17      29.61R WCI  25
KENOSHA        FLURRIES  36  30  79 NW10      29.60R WCI  28
FOND DU LAC    LGT SNOW  29  25  85 N10       29.63R VSB 3/4 WCI  20
SHEBOYGAN      SNOW      27  23  85 N16       29.60R VSB 1/2 WCI  15
WEST BEND      LGT SNOW  30  28  93 NW9       29.60R VSB 3/4 WCI  22
JUNEAU         LGT SNOW  29  26  90 MISG      29.64R
$$

LSZ147-162-012000-
LAKE SUPERIOR

STATION/POSITION TIME  TEMP    WIND        PRES    WAVE
                       AIR SEA DIR/SP/G            HT/PER
                 (UTC) (F)     (DEG/KT/KT) (MB)    (FT/S)
DEVILS ISLAND    1800   18      40/ 11/ 14 1013.9R
PORT WING        1840   24      40/  8/ 10 1013.2R
SAXON HARBOR     1840   23      30/ 14/ 19 1011.9R
$$

LMZ867-665-643>646-012000-
LAKE MICHIGAN

STATION/POSITION TIME  TEMP    WIND        PRES    WAVE
                       AIR SEA DIR/SP/G            HT/PER
                 (UTC) (F)     (DEG/KT/KT) (MB)    (FT/S)
CHAMBERS ISLAND  1840   25     340/ 23/ 30 1001.7R
NORTHPORT PIER   1840   25     350/ 25/ 31 1001.4S
SISTER BAY       1850   25      10/ 27/ 39   N/A
KEWAUNEE LAKESHO 1830   25     330/ 16/ 20 1001.4R
SHEBOYGAN LAKESH 1800   27     320/ 22/ 27 1002.6R
PORT WASHINGTON  1840   29     330/  5/ 10 1003.7R
MILWAUKEE LAKESH 1820   30     310/ 16/ 22   N/A
KENOSHA   LAKESH 1800   36     310/ 15/ 22 1001.7
$$

TC  - TEMPERATURE IN CELSIUS
VSB - VISIBILITY IN STATUTE MILES
WCI - WIND CHILL INDEX
HX  - HEAT INDEX




USA.gov is the U.S. government's official web portal to all federal, state and local government web resources and services.